Everett, WA

9:59 AM PST on November 15, 2019 (GMT -0800)
Snohomish County

Weather History for KPAE - August, 2019

Change the Weather History Date:

Saturday, August 17, 2019

  Actual Average Record
Temperature  
Mean Temperature 66 °F -  
Max Temperature 72 °F 72 °F 89 °F (1967)
Min Temperature 59 °F 53 °F 43 °F (1969)
Growing Degree Days 16 (Base 50)    
Moisture  
Dew Point 55 °F    
Average Humidity 73    
Maximum Humidity 90    
Minimum Humidity 53    
Precipitation  
Precipitation 0.00 in - - ()
Sea Level Pressure  
Sea Level Pressure 29.99 in    
Wind  
Wind Speed 4 mph (WSW)    
Max Wind Speed 12 mph    
Max Gust Speed -    
Visibility 10 miles    
Events      
Averages and records for this station are not official NWS values.
T = Trace of Precipitation, MM = Missing Value Source: NWS Daily Summary

Daily Weather History Graph

Daily Weather History Graph

Search for Another Location

Airport or City:

Astronomy

Aug. 17, 2019 Rise Set
Actual Time 6:06 AM PDT 8:18 PM PDT
Civil Twilight 5:32 AM PDT 8:52 PM PDT
Nautical Twilight 4:50 AM PDT 9:34 PM PDT
Astronomical Twilight 4:02 AM PDT 10:21 PM PDT
Moon 9:41 PM PDT (8/17) 8:05 AM PDT (8/17)
Length of Visible Light 15h 19m
Length of Day
14h 11m
Waning Gibbous, 95% of the Moon is Illuminated
Aug 17
Waning Gibbous
Aug 23
Last Quarter
Aug 30
New
Sep 5
First Quarter
Sep 13
Full

Hourly Weather History & Observations

Time (PDT) Temp. Dew Point Humidity Pressure Visibility Wind Dir Wind Speed Gust Speed Precip Events Conditions
12:11 AM 63.0 °F 55.0 °F 75% 30.04 in 10.0 mi SSW 3.5 mph - N/A   Overcast
12:53 AM 63.0 °F 55.0 °F 75% 30.04 in 10.0 mi SW 5.8 mph - N/A   Overcast
1:40 AM 61.0 °F 55.0 °F 81% 30.04 in 10.0 mi SSW 5.8 mph - N/A   Overcast
1:53 AM 61.0 °F 55.0 °F 81% 30.03 in 10.0 mi SSW 4.6 mph - N/A   Overcast
2:53 AM 61.0 °F 55.0 °F 81% 30.02 in 10.0 mi Calm Calm - N/A   Overcast
3:53 AM 60.1 °F 55.9 °F 86% 30.01 in 10.0 mi Calm Calm - N/A   Overcast
4:53 AM 59.0 °F 55.0 °F 87% 30.01 in 10.0 mi North 3.5 mph - N/A   Overcast
5:02 AM 59.0 °F 55.0 °F 87% 30.02 in 10.0 mi Calm Calm - N/A   Overcast
5:29 AM 60.1 °F 55.0 °F 83% 30.02 in 10.0 mi Calm Calm - N/A   Overcast
5:53 AM 60.1 °F 55.0 °F 83% 30.01 in 10.0 mi Calm Calm - N/A   Overcast
6:53 AM 60.1 °F 55.0 °F 83% 30.01 in 10.0 mi Calm Calm - N/A   Overcast
7:53 AM 61.0 °F 55.0 °F 81% 30.01 in 10.0 mi Calm Calm - N/A   Overcast
8:25 AM 62.1 °F 55.0 °F 78% 30.02 in 10.0 mi SW 6.9 mph - N/A   Mostly Cloudy
8:33 AM 62.1 °F 55.0 °F 78% 30.02 in 10.0 mi Variable 4.6 mph - N/A   Mostly Cloudy
8:53 AM 61.0 °F 55.0 °F 81% 30.02 in 10.0 mi West 4.6 mph - N/A   Mostly Cloudy
9:53 AM 62.1 °F 55.9 °F 80% 30.02 in 10.0 mi Variable 4.6 mph - N/A   Overcast
10:53 AM 64.0 °F 55.9 °F 75% 30.02 in 10.0 mi WNW 4.6 mph - N/A   Overcast
11:53 AM 64.9 °F 55.0 °F 70% 30.01 in 10.0 mi WSW 8.1 mph - N/A   Overcast
12:53 PM 66.9 °F 55.0 °F 66% 30.01 in 10.0 mi SW 8.1 mph - N/A   Overcast
1:53 PM 69.1 °F 54.0 °F 58% 30.00 in 10.0 mi West 10.4 mph - N/A   Mostly Cloudy
2:53 PM 71.1 °F 55.0 °F 57% 29.99 in 10.0 mi West 8.1 mph - N/A   Mostly Cloudy
3:00 PM 72.0 °F 54.0 °F 53% 29.99 in 10.0 mi WSW 10.4 mph - N/A   Clear
3:05 PM 71.1 °F 54.0 °F 55% 29.99 in 10.0 mi WSW 11.5 mph - N/A   Mostly Cloudy
3:53 PM 72.0 °F 54.0 °F 53% 29.97 in 10.0 mi SW 10.4 mph - N/A   Mostly Cloudy
4:53 PM 71.1 °F 55.0 °F 57% 29.96 in 10.0 mi WSW 8.1 mph - N/A   Mostly Cloudy
5:53 PM 70.0 °F 55.0 °F 59% 29.95 in 10.0 mi SW 8.1 mph - N/A   Overcast
6:53 PM 70.0 °F 55.0 °F 59% 29.93 in 10.0 mi SW 5.8 mph - N/A   Overcast
7:53 PM 69.1 °F 55.0 °F 61% 29.92 in 10.0 mi SSW 5.8 mph - N/A   Overcast
8:53 PM 66.9 °F 55.0 °F 66% 29.92 in 10.0 mi Calm Calm - N/A   Mostly Cloudy
9:53 PM 63.0 °F 55.0 °F 75% 29.92 in 10.0 mi Calm Calm - N/A   Clear
10:53 PM 60.1 °F 55.9 °F 86% 29.93 in 10.0 mi NNE 4.6 mph - N/A   Clear
11:53 PM 59.0 °F 55.9 °F 90% 29.93 in 10.0 mi NNE 6.9 mph - N/A   Partly Cloudy